• In Uzbekistan
  • List of Countries
  • For 7 days
  • Water Temperature
  • Satellite Maps
  • Weather Map
  • Weather Widgets
  • user-avatar
    Login

    Hourly Weather Tibissa

    Today, 26 May, Friday

    Time Temperature Precipitation Wind Pressure Humidity
    00:00 +21°C° 0 mm 1 mps 685 mmHg 50%
    01:00 +20°C° 0 mm 1 mps 685 mmHg 53%
    02:00 +20°C° 0 mm 1 mps 684 mmHg 53%
    03:00 +20°C° 0 mm 1 mps 684 mmHg 54%
    04:00 +19°C° 0 mm 1 mps 684 mmHg 54%
    05:00 +21°C° 0 mm 1 mps 684 mmHg 50%
    06:00 +22°C° 0 mm 1 mps 685 mmHg 47%
    07:00 +23°C° 0 mm 1 mps 685 mmHg 43%
    08:00 +25°C° 0 mm 1 mps 686 mmHg 39%
    09:00 +27°C° 0 mm 2 mps 686 mmHg 35%
    10:00 +29°C° 0 mm 3 mps 686 mmHg 31%
    11:00 +30°C° 0 mm 3 mps 686 mmHg 29%
    12:00 +32°C° 0 mm 4 mps 686 mmHg 26%
    13:00 +33°C° 0 mm 4 mps 686 mmHg 23%
    14:00 +33°C° 0 mm 4 mps 686 mmHg 23%
    15:00 +33°C° 0 mm 4 mps 686 mmHg 23%
    16:00 +33°C° 0 mm 4 mps 685 mmHg 22%
    17:00 +30°C° 0 mm 4 mps 685 mmHg 25%
    18:00 +29°C° 0 mm 3 mps 685 mmHg 27%
    19:00 +28°C° 0 mm 3 mps 685 mmHg 30%
    20:00 +26°C° 0.1 mm 3 mps 685 mmHg 34%
    21:00 +24°C° 0.1 mm 3 mps 685 mmHg 39%
    22:00 +21°C° 0.1 mm 3 mps 685 mmHg 43%
    23:00 +21°C° 0.1 mm 2 mps 685 mmHg 47%

    Tomorrow, 27 May, Saturday

    Time Temperature Precipitation Wind Pressure Humidity
    00:00 +20°C° 0.1 mm 2 mps 685 mmHg 51%
    01:00 +20°C° 0.1 mm 1 mps 685 mmHg 54%
    02:00 +20°C° 0.2 mm 1 mps 685 mmHg 55%
    03:00 +20°C° 0.2 mm 1 mps 685 mmHg 56%
    04:00 +20°C° 0.2 mm 1 mps 685 mmHg 57%
    05:00 +20°C° 0 mm 1 mps 685 mmHg 56%
    06:00 +21°C° 0 mm 1 mps 686 mmHg 55%
    07:00 +21°C° 0 mm 1 mps 686 mmHg 54%
    08:00 +23°C° 0 mm 1 mps 686 mmHg 48%
    09:00 +25°C° 0 mm 1 mps 687 mmHg 42%
    10:00 +27°C° 0 mm 1 mps 687 mmHg 36%
    11:00 +28°C° 0 mm 2 mps 687 mmHg 33%
    12:00 +30°C° 0 mm 2 mps 687 mmHg 30%
    13:00 +31°C° 0 mm 2 mps 687 mmHg 27%
    14:00 +31°C° 0 mm 2 mps 687 mmHg 27%
    15:00 +31°C° 0 mm 2 mps 687 mmHg 28%
    16:00 +31°C° 0 mm 2 mps 687 mmHg 29%
    17:00 +29°C° 0.1 mm 2 mps 686 mmHg 32%
    18:00 +28°C° 0.1 mm 3 mps 686 mmHg 36%
    19:00 +27°C° 0.1 mm 3 mps 686 mmHg 39%
    20:00 +26°C° 0.1 mm 3 mps 686 mmHg 42%
    21:00 +25°C° 0.1 mm 3 mps 687 mmHg 44%
    22:00 +22°C° 0.1 mm 3 mps 687 mmHg 47%
    23:00 +23°C° 0 mm 2 mps 687 mmHg 49%

    Day after tomorrow, 28 May, Sunday

    Time Temperature Precipitation Wind Pressure Humidity
    00:00 +21°C° 0 mm 2 mps 686 mmHg 51%
    01:00 +20°C° 0 mm 2 mps 686 mmHg 53%
    02:00 +19°C° 0.1 mm 2 mps 686 mmHg 55%
    03:00 +20°C° 0.1 mm 1 mps 686 mmHg 58%
    04:00 +19°C° 0.1 mm 1 mps 686 mmHg 60%
    05:00 +20°C° 0.1 mm 1 mps 686 mmHg 58%
    06:00 +21°C° 0.1 mm 1 mps 686 mmHg 56%
    07:00 +21°C° 0.1 mm 1 mps 687 mmHg 53%
    08:00 +23°C° 0 mm 1 mps 687 mmHg 47%
    09:00 +25°C° 0 mm 2 mps 688 mmHg 42%
    10:00 +28°C° 0 mm 2 mps 688 mmHg 36%
    11:00 +29°C° 0 mm 2 mps 688 mmHg 33%
    12:00 +30°C° 0 mm 2 mps 688 mmHg 31%
    13:00 +31°C° 0 mm 3 mps 688 mmHg 29%
    14:00 +31°C° 0 mm 3 mps 688 mmHg 29%
    15:00 +31°C° 0 mm 3 mps 687 mmHg 29%
    16:00 +31°C° 0 mm 3 mps 687 mmHg 29%
    17:00 +29°C° 0.6 mm 3 mps 687 mmHg 33%
    18:00 +28°C° 0.6 mm 4 mps 687 mmHg 37%
    19:00 +26°C° 0.6 mm 4 mps 686 mmHg 41%
    20:00 +25°C° 0.9 mm 4 mps 687 mmHg 47%
    21:00 +22°C° 0.9 mm 3 mps 687 mmHg 53%
    22:00 +21°C° 0.9 mm 3 mps 687 mmHg 58%
    23:00 +20°C° 0.1 mm 3 mps 687 mmHg 60%

    29 May, Monday

    Time Temperature Precipitation Wind Pressure Humidity
    00:00 +19°C° 0.1 mm 2 mps 686 mmHg 62%
    01:00 +19°C° 0.1 mm 2 mps 686 mmHg 64%
    02:00 +18°C° 0 mm 2 mps 685 mmHg 66%
    03:00 +18°C° 0 mm 2 mps 685 mmHg 67%
    04:00 +17°C° 0 mm 2 mps 685 mmHg 68%
    05:00 +17°C° 0 mm 2 mps 685 mmHg 64%
    06:00 +18°C° 0 mm 3 mps 685 mmHg 60%
    07:00 +18°C° 0 mm 3 mps 686 mmHg 57%
    08:00 +20°C° 0 mm 3 mps 686 mmHg 51%
    09:00 +21°C° 0 mm 4 mps 686 mmHg 45%
    10:00 +23°C° 0 mm 4 mps 687 mmHg 39%
    11:00 +25°C° 0 mm 4 mps 686 mmHg 37%
    12:00 +26°C° 0 mm 4 mps 686 mmHg 35%
    13:00 +27°C° 0 mm 4 mps 686 mmHg 33%
    14:00 +28°C° 0 mm 4 mps 686 mmHg 32%
    15:00 +28°C° 0 mm 4 mps 686 mmHg 32%
    16:00 +28°C° 0 mm 4 mps 685 mmHg 31%
    17:00 +27°C° 0.2 mm 4 mps 685 mmHg 34%
    18:00 +25°C° 0.2 mm 5 mps 685 mmHg 37%
    19:00 +23°C° 0.2 mm 5 mps 685 mmHg 40%
    20:00 +21°C° 0.1 mm 5 mps 685 mmHg 43%
    21:00 +20°C° 0.1 mm 5 mps 685 mmHg 47%
    22:00 +19°C° 0.1 mm 5 mps 686 mmHg 50%
    23:00 +18°C° 0 mm 4 mps 685 mmHg 52%

    30 May, Tuesday

    Time Temperature Precipitation Wind Pressure Humidity
    00:00 +17°C° 0 mm 3 mps 685 mmHg 55%
    01:00 +16°C° 0 mm 2 mps 685 mmHg 57%
    02:00 +16°C° 0 mm 2 mps 684 mmHg 58%
    03:00 +15°C° 0 mm 2 mps 684 mmHg 59%
    04:00 +15°C° 0 mm 2 mps 684 mmHg 60%
    05:00 +16°C° 0 mm 2 mps 685 mmHg 57%
    06:00 +16°C° 0 mm 2 mps 685 mmHg 53%
    07:00 +17°C° 0 mm 2 mps 685 mmHg 50%
    08:00 +19°C° 0 mm 2 mps 686 mmHg 43%
    09:00 +21°C° 0 mm 3 mps 686 mmHg 36%
    10:00 +24°C° 0 mm 3 mps 687 mmHg 30%
    11:00 +25°C° 0 mm 3 mps 687 mmHg 28%
    12:00 +26°C° 0 mm 3 mps 687 mmHg 26%
    13:00 +28°C° 0 mm 3 mps 687 mmHg 24%
    14:00 +28°C° 0 mm 4 mps 687 mmHg 24%
    15:00 +28°C° 0 mm 4 mps 687 mmHg 24%
    16:00 +28°C° 0 mm 4 mps 687 mmHg 23%
    17:00 +27°C° 0 mm 4 mps 687 mmHg 28%
    18:00 +26°C° 0 mm 4 mps 687 mmHg 32%
    19:00 +23°C° 0 mm 4 mps 687 mmHg 37%
    20:00 +22°C° 0 mm 4 mps 687 mmHg 44%
    21:00 +21°C° 0 mm 4 mps 687 mmHg 52%
    22:00 +19°C° 0 mm 3 mps 687 mmHg 59%
    23:00 +19°C° 0 mm 3 mps 687 mmHg 63%

    31 May, Wednesday

    Time Temperature Precipitation Wind Pressure Humidity
    00:00 +18°C° 0 mm 3 mps 687 mmHg 66%
    01:00 +18°C° 0 mm 2 mps 686 mmHg 70%
    02:00 +17°C° 0 mm 2 mps 686 mmHg 72%
    03:00 +17°C° 0 mm 2 mps 686 mmHg 74%
    04:00 +16°C° 0 mm 2 mps 686 mmHg 76%
    05:00 +17°C° 0 mm 2 mps 686 mmHg 69%
    06:00 +17°C° 0 mm 2 mps 686 mmHg 63%
    07:00 +18°C° 0 mm 2 mps 687 mmHg 57%
    08:00 +20°C° 0 mm 2 mps 687 mmHg 48%
    09:00 +22°C° 0 mm 3 mps 688 mmHg 38%
    10:00 +24°C° 0 mm 3 mps 688 mmHg 29%
    11:00 +25°C° 0 mm 3 mps 688 mmHg 26%
    12:00 +27°C° 0 mm 3 mps 688 mmHg 24%
    13:00 +28°C° 0 mm 3 mps 688 mmHg 22%
    14:00 +28°C° 0 mm 3 mps 688 mmHg 22%
    15:00 +28°C° 0 mm 3 mps 688 mmHg 22%
    16:00 +28°C° 0 mm 3 mps 687 mmHg 22%
    17:00 +27°C° 0 mm 3 mps 687 mmHg 25%
    18:00 +26°C° 0 mm 3 mps 687 mmHg 28%
    19:00 +25°C° 0 mm 4 mps 687 mmHg 31%
    20:00 +24°C° 0 mm 3 mps 687 mmHg 36%
    21:00 +22°C° 0 mm 3 mps 687 mmHg 41%
    22:00 +20°C° 0 mm 3 mps 687 mmHg 46%
    23:00 +19°C° 0 mm 2 mps 687 mmHg 49%
    Show more